User: anonymous   Login
Location: Unspecified
(0.0000°N, 0.0000°E)
Time: 12:06:12
(UTC+00:00)
Language:

APRIZESAT 7 - Orbit

View from above orbital plane
View from above orbital plane
View from above satellite
View from above satellite

Ground track
Ground track

The orbit data is extracted from the following two-line orbital elements,

1 39416U 13066A   18347.71846747 +.00000050 +00000-0 +12145-4 0  9998
2 39416 097.5640 016.7303 0039741 261.4704 098.2006 14.83849082273941
Epoch (UTC): 13 December 2018 17:14:35
Eccentricity: 0.0039741
inclination: 97.5640°
perigee height: 589 km
apogee height: 645 km
right ascension of ascending node: 16.7303°
argument of perigee: 261.4704°
revolutions per day: 14.83849082
mean anomaly at epoch: 98.2006°
orbit number at epoch: 27394

The dashed part of the orbit path shows where the satellite is in the earth's shadow,  

DLR